owner,sensor,date,latitude,longitude,vertical_datum,wind_speed,wind_to_direction,wind_speed_of_gust,qcFlag 
TCOON,ioos:station:TCOON:057:1,2013-07-01T00:00:00Z,28.4460,-96.3961,0.0,2.2,328.0,3.0,'11111222,11111222,11111222' 
TCOON,ioos:station:TCOON:057:1,2013-07-01T01:00:00Z,28.4460,-96.3961,0.0,1.7,301.0,1.9,'11111222,11111222,11111222' 
TCOON,ioos:station:TCOON:057:1,2013-07-01T02:00:00Z,28.4460,-96.3961,0.0,3.9,235.0,4.2,'11111222,11111222,11111222' 
TCOON,ioos:station:TCOON:057:1,2013-07-01T03:00:00Z,28.4460,-96.3961,0.0,4.3,279.0,5.3,'11111222,11111222,11111222' 
TCOON,ioos:station:TCOON:057:1,2013-07-01T04:00:00Z,28.4460,-96.3961,0.0,5.0,283.0,5.9,'11111222,11111222,11111222' 
TCOON,ioos:station:TCOON:057:1,2013-07-01T05:00:00Z,28.4460,-96.3961,0.0,5.3,280.0,6.4,'11111222,11111222,11111222' 
TCOON,ioos:station:TCOON:057:1,2013-07-01T06:00:00Z,28.4460,-96.3961,0.0,4.6,293.0,5.6,'11111222,11111222,11111222' 
TCOON,ioos:station:TCOON:057:1,2013-07-01T07:00:00Z,28.4460,-96.3961,0.0,4.8,304.0,5.9,'11111222,11111222,11111222' 
TCOON,ioos:station:TCOON:057:1,2013-07-01T08:00:00Z,28.4460,-96.3961,0.0,5.0,39.0,6.3,'11111222,11111222,11111222' 
TCOON,ioos:station:TCOON:057:1,2013-07-01T09:00:00Z,28.4460,-96.3961,0.0,9.1,48.0,10.7,'11111222,11111222,11111222' 
TCOON,ioos:station:TCOON:057:1,2013-07-01T11:00:00Z,28.4460,-96.3961,0.0,8.5,55.0,10.6,'11111222,11111222,11111222' 
TCOON,ioos:station:TCOON:057:1,2013-07-01T13:00:00Z,28.4460,-96.3961,0.0,8.9,31.0,10.0,'11111222,11111222,11111222' 
TCOON,ioos:station:TCOON:057:1,2013-07-01T14:00:00Z,28.4460,-96.3961,0.0,6.9,37.0,7.8,'11111222,11111222,11111222' 
TCOON,ioos:station:TCOON:057:1,2013-07-01T15:00:00Z,28.4460,-96.3961,0.0,4.6,28.0,5.2,'11111222,11111222,11111222' 
TCOON,ioos:station:TCOON:057:1,2013-07-01T16:00:00Z,28.4460,-96.3961,0.0,4.2,26.0,5.1,'11111222,11111222,11111222' 
TCOON,ioos:station:TCOON:057:1,2013-07-01T17:00:00Z,28.4460,-96.3961,0.0,1.3,57.0,1.9,'11111222,11111222,11111222' 
TCOON,ioos:station:TCOON:057:1,2013-07-01T19:00:00Z,28.4460,-96.3961,0.0,2.8,136.0,3.2,'11111222,11111222,11111222' 
TCOON,ioos:station:TCOON:057:1,2013-07-01T20:00:00Z,28.4460,-96.3961,0.0,3.9,134.0,4.4,'11111222,11111222,11111222' 
TCOON,ioos:station:TCOON:057:1,2013-07-01T21:00:00Z,28.4460,-96.3961,0.0,5.3,111.0,6.7,'11111222,11111222,11111222' 
TCOON,ioos:station:TCOON:057:1,2013-07-01T22:00:00Z,28.4460,-96.3961,0.0,6.7,100.0,7.5,'11111222,11111222,11111222' 
TCOON,ioos:station:TCOON:057:1,2013-07-01T23:00:00Z,28.4460,-96.3961,0.0,6.6,108.0,7.6,'11111222,11111222,11111222' 
TCOON,ioos:station:TCOON:057:1,2013-07-02T00:00:00Z,28.4460,-96.3961,0.0,6.6,119.0,7.6,'11111222,11111222,11111222' 
TCOON,ioos:station:TCOON:057:1,2013-07-02T01:00:00Z,28.4460,-96.3961,0.0,6.2,106.0,6.8,'11111222,11111222,11111222' 
TCOON,ioos:station:TCOON:057:1,2013-07-02T02:00:00Z,28.4460,-96.3961,0.0,4.5,96.0,5.1,'11111222,11111222,11111222' 
TCOON,ioos:station:TCOON:057:1,2013-07-02T03:00:00Z,28.4460,-96.3961,0.0,3.2,101.0,4.1,'11111222,11111222,11111222' 
TCOON,ioos:station:TCOON:057:1,2013-07-02T04:00:00Z,28.4460,-96.3961,0.0,2.3,97.0,3.2,'11111222,11111222,11111222' 
TCOON,ioos:station:TCOON:057:1,2013-07-02T05:00:00Z,28.4460,-96.3961,0.0,1.7,109.0,2.2,'11111222,11111222,11111222' 
TCOON,ioos:station:TCOON:057:1,2013-07-02T06:00:00Z,28.4460,-96.3961,0.0,1.0,135.0,1.3,'11111222,11111222,11111222' 
TCOON,ioos:station:TCOON:057:1,2013-07-02T07:00:00Z,28.4460,-96.3961,0.0,0.6,148.0,1.0,'11111222,11111222,11111222' 
TCOON,ioos:station:TCOON:057:1,2013-07-02T08:00:00Z,28.4460,-96.3961,0.0,1.1,263.0,1.2,'11111222,11111222,11111222' 
TCOON,ioos:station:TCOON:057:1,2013-07-02T09:00:00Z,28.4460,-96.3961,0.0,1.9,240.0,2.1,'11111222,11111222,11111222' 
TCOON,ioos:station:TCOON:057:1,2013-07-02T10:00:00Z,28.4460,-96.3961,0.0,1.9,308.0,2.3,'11111222,11111222,11111222' 
TCOON,ioos:station:TCOON:057:1,2013-07-02T11:00:00Z,28.4460,-96.3961,0.0,2.2,305.0,2.6,'11111222,11111222,11111222' 
TCOON,ioos:station:TCOON:057:1,2013-07-02T12:00:00Z,28.4460,-96.3961,0.0,2.9,287.0,3.3,'11111222,11111222,11111222' 
TCOON,ioos:station:TCOON:057:1,2013-07-02T13:00:00Z,28.4460,-96.3961,0.0,4.1,258.0,5.4,'11111222,11111222,11111222' 
TCOON,ioos:station:TCOON:057:1,2013-07-02T14:00:00Z,28.4460,-96.3961,0.0,3.9,299.0,4.9,'11111222,11111222,11111222' 
TCOON,ioos:station:TCOON:057:1,2013-07-02T15:00:00Z,28.4460,-96.3961,0.0,5.1,316.0,5.7,'11111222,11111222,11111222' 
TCOON,ioos:station:TCOON:057:1,2013-07-02T18:36:00Z,28.4460,-96.3961,0.0,0.5,19.0,0.7,'11111222,11111222,11111222' 
TCOON,ioos:station:TCOON:057:1,2013-07-02T18:42:00Z,28.4460,-96.3961,0.0,1.0,68.0,1.1,'11111222,11111222,11111222' 
TCOON,ioos:station:TCOON:057:1,2013-07-02T18:48:00Z,28.4460,-96.3961,0.0,1.5,67.0,1.7,'11111222,11111222,11111222' 
TCOON,ioos:station:TCOON:057:1,2013-07-02T18:54:00Z,28.4460,-96.3961,0.0,2.1,62.0,2.4,'11111222,11111222,11111222' 
TCOON,ioos:station:TCOON:057:1,2013-07-02T19:00:00Z,28.4460,-96.3961,0.0,2.2,77.0,2.4,'11111222,11111222,11111222' 
TCOON,ioos:station:TCOON:057:1,2013-07-02T19:06:00Z,28.4460,-96.3961,0.0,2.0,65.0,3.1,'11111222,11111222,11111222' 
TCOON,ioos:station:TCOON:057:1,2013-07-02T19:12:00Z,28.4460,-96.3961,0.0,1.4,57.0,2.4,'11111222,11111222,11111222' 
TCOON,ioos:station:TCOON:057:1,2013-07-02T19:18:00Z,28.4460,-96.3961,0.0,1.2,38.0,2.4,'11111222,11111222,11111222' 
TCOON,ioos:station:TCOON:057:1,2013-07-02T19:24:00Z,28.4460,-96.3961,0.0,1.3,5.0,2.1,'11111222,11111222,11111222' 
TCOON,ioos:station:TCOON:057:1,2013-07-02T19:30:00Z,28.4460,-96.3961,0.0,0.9,358.0,1.9,'11111222,11111222,11111222' 
TCOON,ioos:station:TCOON:057:1,2013-07-02T19:36:00Z,28.4460,-96.3961,0.0,1.1,16.0,1.6,'11111222,11111222,11111222' 
TCOON,ioos:station:TCOON:057:1,2013-07-02T19:42:00Z,28.4460,-96.3961,0.0,1.0,27.0,1.3,'11111222,11111222,11111222' 
TCOON,ioos:station:TCOON:057:1,2013-07-02T19:48:00Z,28.4460,-96.3961,0.0,1.2,36.0,1.8,'11111222,11111222,11111222' 
TCOON,ioos:station:TCOON:057:1,2013-07-02T19:54:00Z,28.4460,-96.3961,0.0,1.1,37.0,1.4,'11111222,11111222,11111222' 
TCOON,ioos:station:TCOON:057:1,2013-07-02T20:00:00Z,28.4460,-96.3961,0.0,0.7,7.0,1.5,'11111222,11111222,11111222' 
TCOON,ioos:station:TCOON:057:1,2013-07-02T20:06:00Z,28.4460,-96.3961,0.0,1.0,25.0,1.4,'11111222,11111222,11111222' 
TCOON,ioos:station:TCOON:057:1,2013-07-02T20:12:00Z,28.4460,-96.3961,0.0,1.1,27.0,1.6,'11111222,11111222,11111222' 
TCOON,ioos:station:TCOON:057:1,2013-07-02T20:18:00Z,28.4460,-96.3961,0.0,1.0,22.0,2.0,'11111222,11111222,11111222' 
TCOON,ioos:station:TCOON:057:1,2013-07-02T20:24:00Z,28.4460,-96.3961,0.0,1.2,24.0,1.7,'11111222,11111222,11111222' 
TCOON,ioos:station:TCOON:057:1,2013-07-02T20:30:00Z,28.4460,-96.3961,0.0,1.4,46.0,1.9,'11111222,11111222,11111222' 
TCOON,ioos:station:TCOON:057:1,2013-07-02T20:36:00Z,28.4460,-96.3961,0.0,1.4,54.0,1.7,'11111222,11111222,11111222' 
TCOON,ioos:station:TCOON:057:1,2013-07-02T20:42:00Z,28.4460,-96.3961,0.0,2.6,120.0,4.3,'11111222,11111222,11111222' 
TCOON,ioos:station:TCOON:057:1,2013-07-02T20:48:00Z,28.4460,-96.3961,0.0,2.8,154.0,4.3,'11111222,11111222,11111222' 
TCOON,ioos:station:TCOON:057:1,2013-07-02T20:54:00Z,28.4460,-96.3961,0.0,3.8,174.0,4.5,'11111222,11111222,11111222' 
TCOON,ioos:station:TCOON:057:1,2013-07-02T21:00:00Z,28.4460,-96.3961,0.0,5.4,169.0,6.8,'11111222,11111222,11111222' 
TCOON,ioos:station:TCOON:057:1,2013-07-02T21:06:00Z,28.4460,-96.3961,0.0,6.2,178.0,7.0,'11111222,11111222,11111222' 
TCOON,ioos:station:TCOON:057:1,2013-07-02T21:12:00Z,28.4460,-96.3961,0.0,6.6,176.0,7.5,'11111222,11111222,11111222' 
TCOON,ioos:station:TCOON:057:1,2013-07-02T21:18:00Z,28.4460,-96.3961,0.0,5.9,175.0,6.9,'11111222,11111222,11111222' 
TCOON,ioos:station:TCOON:057:1,2013-07-02T21:24:00Z,28.4460,-96.3961,0.0,4.7,172.0,7.2,'11111222,11111222,11111222' 
TCOON,ioos:station:TCOON:057:1,2013-07-02T21:30:00Z,28.4460,-96.3961,0.0,4.9,182.0,5.8,'11111222,11111222,11111222' 
TCOON,ioos:station:TCOON:057:1,2013-07-02T21:36:00Z,28.4460,-96.3961,0.0,5.0,179.0,6.2,'11111222,11111222,11111222' 
TCOON,ioos:station:TCOON:057:1,2013-07-02T21:42:00Z,28.4460,-96.3961,0.0,5.2,176.0,6.1,'11111222,11111222,11111222' 
TCOON,ioos:station:TCOON:057:1,2013-07-02T21:48:00Z,28.4460,-96.3961,0.0,5.7,178.0,6.5,'11111222,11111222,11111222' 
TCOON,ioos:station:TCOON:057:1,2013-07-02T21:54:00Z,28.4460,-96.3961,0.0,5.6,181.0,6.8,'11111222,11111222,11111222' 
TCOON,ioos:station:TCOON:057:1,2013-07-02T22:00:00Z,28.4460,-96.3961,0.0,5.6,178.0,6.7,'11111222,11111222,11111222' 
TCOON,ioos:station:TCOON:057:1,2013-07-02T22:06:00Z,28.4460,-96.3961,0.0,5.3,170.0,7.2,'11111222,11111222,11111222' 
TCOON,ioos:station:TCOON:057:1,2013-07-02T22:12:00Z,28.4460,-96.3961,0.0,3.9,198.0,6.2,'11111222,11111222,11111222' 
TCOON,ioos:station:TCOON:057:1,2013-07-02T22:18:00Z,28.4460,-96.3961,0.0,5.1,195.0,6.4,'11111222,11111222,11111222' 
TCOON,ioos:station:TCOON:057:1,2013-07-02T22:24:00Z,28.4460,-96.3961,0.0,5.0,201.0,6.2,'11111222,11111222,11111222' 
TCOON,ioos:station:TCOON:057:1,2013-07-02T22:30:00Z,28.4460,-96.3961,0.0,6.0,180.0,7.2,'11111222,11111222,11111222' 
TCOON,ioos:station:TCOON:057:1,2013-07-02T22:36:00Z,28.4460,-96.3961,0.0,5.8,170.0,7.5,'11111222,11111222,11111222' 
TCOON,ioos:station:TCOON:057:1,2013-07-02T22:42:00Z,28.4460,-96.3961,0.0,6.3,173.0,7.5,'11111222,11111222,11111222' 
TCOON,ioos:station:TCOON:057:1,2013-07-02T22:48:00Z,28.4460,-96.3961,0.0,6.1,169.0,7.3,'11111222,11111222,11111222' 
TCOON,ioos:station:TCOON:057:1,2013-07-02T22:54:00Z,28.4460,-96.3961,0.0,6.2,164.0,7.1,'11111222,11111222,11111222' 
TCOON,ioos:station:TCOON:057:1,2013-07-02T23:00:00Z,28.4460,-96.3961,0.0,6.1,171.0,7.5,'11111222,11111222,11111222' 
TCOON,ioos:station:TCOON:057:1,2013-07-02T23:06:00Z,28.4460,-96.3961,0.0,6.8,169.0,7.4,'11111222,11111222,11111222' 
TCOON,ioos:station:TCOON:057:1,2013-07-02T23:12:00Z,28.4460,-96.3961,0.0,7.2,170.0,7.8,'11111222,11111222,11111222' 
TCOON,ioos:station:TCOON:057:1,2013-07-02T23:18:00Z,28.4460,-96.3961,0.0,7.5,165.0,8.2,'11111222,11111222,11111222' 
TCOON,ioos:station:TCOON:057:1,2013-07-02T23:24:00Z,28.4460,-96.3961,0.0,7.0,159.0,8.4,'11111222,11111222,11111222' 
TCOON,ioos:station:TCOON:057:1,2013-07-02T23:30:00Z,28.4460,-96.3961,0.0,7.5,161.0,8.4,'11111222,11111222,11111222' 
TCOON,ioos:station:TCOON:057:1,2013-07-02T23:36:00Z,28.4460,-96.3961,0.0,6.5,176.0,7.7,'11111222,11111222,11111222' 
TCOON,ioos:station:TCOON:057:1,2013-07-02T23:42:00Z,28.4460,-96.3961,0.0,6.6,177.0,7.5,'11111222,11111222,11111222' 
TCOON,ioos:station:TCOON:057:1,2013-07-02T23:48:00Z,28.4460,-96.3961,0.0,6.7,164.0,7.7,'11111222,11111222,11111222' 
TCOON,ioos:station:TCOON:057:1,2013-07-02T23:54:00Z,28.4460,-96.3961,0.0,6.0,167.0,7.3,'11111222,11111222,11111222' 
TCOON,ioos:station:TCOON:057:1,2013-07-03T00:00:00Z,28.4460,-96.3961,0.0,5.9,182.0,7.1,'11111222,11111222,11111222' 
TCOON,ioos:station:TCOON:057:1,2013-07-03T00:06:00Z,28.4460,-96.3961,0.0,6.5,172.0,7.5,'11111222,11111222,11111222' 
TCOON,ioos:station:TCOON:057:1,2013-07-03T00:12:00Z,28.4460,-96.3961,0.0,6.4,160.0,7.2,'11111222,11111222,11111222' 
TCOON,ioos:station:TCOON:057:1,2013-07-03T00:18:00Z,28.4460,-96.3961,0.0,6.0,166.0,7.0,'11111222,11111222,11111222' 
TCOON,ioos:station:TCOON:057:1,2013-07-03T00:24:00Z,28.4460,-96.3961,0.0,6.5,170.0,7.3,'11111222,11111222,11111222' 
TCOON,ioos:station:TCOON:057:1,2013-07-03T00:30:00Z,28.4460,-96.3961,0.0,6.0,175.0,7.0,'11111222,11111222,11111222' 
TCOON,ioos:station:TCOON:057:1,2013-07-03T00:36:00Z,28.4460,-96.3961,0.0,6.1,173.0,6.8,'11111222,11111222,11111222' 
TCOON,ioos:station:TCOON:057:1,2013-07-03T00:42:00Z,28.4460,-96.3961,0.0,5.6,178.0,6.9,'11111222,11111222,11111222' 
TCOON,ioos:station:TCOON:057:1,2013-07-03T00:48:00Z,28.4460,-96.3961,0.0,6.2,178.0,7.1,'11111222,11111222,11111222' 
TCOON,ioos:station:TCOON:057:1,2013-07-03T00:54:00Z,28.4460,-96.3961,0.0,5.7,178.0,7.1,'11111222,11111222,11111222' 
TCOON,ioos:station:TCOON:057:1,2013-07-03T01:00:00Z,28.4460,-96.3961,0.0,6.0,187.0,6.8,'11111222,11111222,11111222' 
TCOON,ioos:station:TCOON:057:1,2013-07-03T01:06:00Z,28.4460,-96.3961,0.0,5.6,186.0,6.3,'11111222,11111222,11111222' 
TCOON,ioos:station:TCOON:057:1,2013-07-03T01:12:00Z,28.4460,-96.3961,0.0,5.4,182.0,6.3,'11111222,11111222,11111222' 
TCOON,ioos:station:TCOON:057:1,2013-07-03T01:18:00Z,28.4460,-96.3961,0.0,6.0,180.0,6.8,'11111222,11111222,11111222' 
TCOON,ioos:station:TCOON:057:1,2013-07-03T01:24:00Z,28.4460,-96.3961,0.0,5.9,181.0,6.8,'11111222,11111222,11111222' 
TCOON,ioos:station:TCOON:057:1,2013-07-03T01:30:00Z,28.4460,-96.3961,0.0,5.6,176.0,6.1,'11111222,11111222,11111222' 
TCOON,ioos:station:TCOON:057:1,2013-07-03T01:36:00Z,28.4460,-96.3961,0.0,5.5,180.0,6.3,'11111222,11111222,11111222' 
TCOON,ioos:station:TCOON:057:1,2013-07-03T01:42:00Z,28.4460,-96.3961,0.0,5.4,182.0,6.0,'11111222,11111222,11111222' 
TCOON,ioos:station:TCOON:057:1,2013-07-03T01:48:00Z,28.4460,-96.3961,0.0,4.8,178.0,5.8,'11111222,11111222,11111222' 
TCOON,ioos:station:TCOON:057:1,2013-07-03T01:54:00Z,28.4460,-96.3961,0.0,4.9,184.0,5.5,'11111222,11111222,11111222' 
TCOON,ioos:station:TCOON:057:1,2013-07-03T02:00:00Z,28.4460,-96.3961,0.0,4.7,178.0,5.6,'11111222,11111222,11111222' 
TCOON,ioos:station:TCOON:057:1,2013-07-03T02:06:00Z,28.4460,-96.3961,0.0,4.5,179.0,5.2,'11111222,11111222,11111222' 
TCOON,ioos:station:TCOON:057:1,2013-07-03T02:12:00Z,28.4460,-96.3961,0.0,4.8,183.0,5.7,'11111222,11111222,11111222' 
TCOON,ioos:station:TCOON:057:1,2013-07-03T02:18:00Z,28.4460,-96.3961,0.0,4.7,177.0,5.8,'11111222,11111222,11111222' 
TCOON,ioos:station:TCOON:057:1,2013-07-03T02:24:00Z,28.4460,-96.3961,0.0,5.6,178.0,6.1,'11111222,11111222,11111222' 
TCOON,ioos:station:TCOON:057:1,2013-07-03T02:30:00Z,28.4460,-96.3961,0.0,5.3,182.0,5.7,'11111222,11111222,11111222' 
TCOON,ioos:station:TCOON:057:1,2013-07-03T02:36:00Z,28.4460,-96.3961,0.0,4.9,180.0,5.7,'11111222,11111222,11111222' 
TCOON,ioos:station:TCOON:057:1,2013-07-03T02:42:00Z,28.4460,-96.3961,0.0,4.8,178.0,5.6,'11111222,11111222,11111222' 
TCOON,ioos:station:TCOON:057:1,2013-07-03T02:48:00Z,28.4460,-96.3961,0.0,5.0,189.0,5.6,'11111222,11111222,11111222' 
TCOON,ioos:station:TCOON:057:1,2013-07-03T02:54:00Z,28.4460,-96.3961,0.0,3.3,199.0,5.6,'11111222,11111222,11111222' 
TCOON,ioos:station:TCOON:057:1,2013-07-03T03:00:00Z,28.4460,-96.3961,0.0,3.6,197.0,4.4,'11111222,11111222,11111222' 
TCOON,ioos:station:TCOON:057:1,2013-07-03T03:06:00Z,28.4460,-96.3961,0.0,4.5,194.0,5.3,'11111222,11111222,11111222' 
TCOON,ioos:station:TCOON:057:1,2013-07-03T03:12:00Z,28.4460,-96.3961,0.0,4.8,190.0,5.7,'11111222,11111222,11111222' 
TCOON,ioos:station:TCOON:057:1,2013-07-03T03:18:00Z,28.4460,-96.3961,0.0,5.5,174.0,6.1,'11111222,11111222,11111222' 
TCOON,ioos:station:TCOON:057:1,2013-07-03T03:24:00Z,28.4460,-96.3961,0.0,5.4,179.0,6.3,'11111222,11111222,11111222' 
TCOON,ioos:station:TCOON:057:1,2013-07-03T03:30:00Z,28.4460,-96.3961,0.0,5.2,174.0,6.1,'11111222,11111222,11111222' 
TCOON,ioos:station:TCOON:057:1,2013-07-03T03:36:00Z,28.4460,-96.3961,0.0,5.3,177.0,6.0,'11111222,11111222,11111222' 
TCOON,ioos:station:TCOON:057:1,2013-07-03T03:42:00Z,28.4460,-96.3961,0.0,5.2,181.0,5.9,'11111222,11111222,11111222' 
TCOON,ioos:station:TCOON:057:1,2013-07-03T03:48:00Z,28.4460,-96.3961,0.0,4.3,192.0,6.0,'11111222,11111222,11111222' 
TCOON,ioos:station:TCOON:057:1,2013-07-03T03:54:00Z,28.4460,-96.3961,0.0,3.8,199.0,4.9,'11111222,11111222,11111222' 
TCOON,ioos:station:TCOON:057:1,2013-07-03T04:00:00Z,28.4460,-96.3961,0.0,3.9,195.0,5.2,'11111222,11111222,11111222' 
TCOON,ioos:station:TCOON:057:1,2013-07-03T04:06:00Z,28.4460,-96.3961,0.0,3.9,192.0,4.7,'11111222,11111222,11111222' 
TCOON,ioos:station:TCOON:057:1,2013-07-03T04:12:00Z,28.4460,-96.3961,0.0,4.1,199.0,5.2,'11111222,11111222,11111222' 
TCOON,ioos:station:TCOON:057:1,2013-07-03T04:18:00Z,28.4460,-96.3961,0.0,3.6,196.0,5.0,'11111222,11111222,11111222' 
TCOON,ioos:station:TCOON:057:1,2013-07-03T04:24:00Z,28.4460,-96.3961,0.0,3.8,197.0,4.5,'11111222,11111222,11111222' 
TCOON,ioos:station:TCOON:057:1,2013-07-03T04:30:00Z,28.4460,-96.3961,0.0,3.7,201.0,4.5,'11111222,11111222,11111222' 
TCOON,ioos:station:TCOON:057:1,2013-07-03T04:36:00Z,28.4460,-96.3961,0.0,3.1,192.0,3.7,'11111222,11111222,11111222' 
TCOON,ioos:station:TCOON:057:1,2013-07-03T04:42:00Z,28.4460,-96.3961,0.0,3.6,194.0,4.3,'11111222,11111222,11111222' 
TCOON,ioos:station:TCOON:057:1,2013-07-03T04:48:00Z,28.4460,-96.3961,0.0,3.5,206.0,4.0,'11111222,11111222,11111222' 
TCOON,ioos:station:TCOON:057:1,2013-07-03T04:54:00Z,28.4460,-96.3961,0.0,3.0,213.0,3.9,'11111222,11111222,11111222' 
TCOON,ioos:station:TCOON:057:1,2013-07-03T05:00:00Z,28.4460,-96.3961,0.0,2.3,199.0,3.0,'11111222,11111222,11111222' 
TCOON,ioos:station:TCOON:057:1,2013-07-03T05:06:00Z,28.4460,-96.3961,0.0,2.7,204.0,3.2,'11111222,11111222,11111222' 
TCOON,ioos:station:TCOON:057:1,2013-07-03T05:12:00Z,28.4460,-96.3961,0.0,2.6,206.0,3.1,'11111222,11111222,11111222' 
TCOON,ioos:station:TCOON:057:1,2013-07-03T05:18:00Z,28.4460,-96.3961,0.0,2.5,201.0,2.8,'11111222,11111222,11111222' 
TCOON,ioos:station:TCOON:057:1,2013-07-03T05:24:00Z,28.4460,-96.3961,0.0,2.8,212.0,3.1,'11111222,11111222,11111222' 
TCOON,ioos:station:TCOON:057:1,2013-07-03T05:30:00Z,28.4460,-96.3961,0.0,2.8,212.0,3.2,'11111222,11111222,11111222' 
TCOON,ioos:station:TCOON:057:1,2013-07-03T05:36:00Z,28.4460,-96.3961,0.0,2.8,207.0,3.3,'11111222,11111222,11111222' 
TCOON,ioos:station:TCOON:057:1,2013-07-03T05:42:00Z,28.4460,-96.3961,0.0,2.9,208.0,3.4,'11111222,11111222,11111222' 
TCOON,ioos:station:TCOON:057:1,2013-07-03T05:48:00Z,28.4460,-96.3961,0.0,2.7,211.0,3.4,'11111222,11111222,11111222' 
TCOON,ioos:station:TCOON:057:1,2013-07-03T05:54:00Z,28.4460,-96.3961,0.0,2.4,206.0,3.0,'11111222,11111222,11111222' 
TCOON,ioos:station:TCOON:057:1,2013-07-03T06:00:00Z,28.4460,-96.3961,0.0,2.6,211.0,2.9,'11111222,11111222,11111222' 
TCOON,ioos:station:TCOON:057:1,2013-07-03T06:06:00Z,28.4460,-96.3961,0.0,2.7,213.0,3.2,'11111222,11111222,11111222' 
TCOON,ioos:station:TCOON:057:1,2013-07-03T06:12:00Z,28.4460,-96.3961,0.0,2.5,203.0,2.9,'11111222,11111222,11111222' 
TCOON,ioos:station:TCOON:057:1,2013-07-03T06:18:00Z,28.4460,-96.3961,0.0,2.5,198.0,2.9,'11111222,11111222,11111222' 
TCOON,ioos:station:TCOON:057:1,2013-07-03T06:24:00Z,28.4460,-96.3961,0.0,2.4,198.0,2.7,'11111222,11111222,11111222' 
TCOON,ioos:station:TCOON:057:1,2013-07-03T06:30:00Z,28.4460,-96.3961,0.0,2.4,205.0,2.7,'11111222,11111222,11111222' 
TCOON,ioos:station:TCOON:057:1,2013-07-03T06:36:00Z,28.4460,-96.3961,0.0,2.6,220.0,2.9,'11111222,11111222,11111222' 
TCOON,ioos:station:TCOON:057:1,2013-07-03T06:42:00Z,28.4460,-96.3961,0.0,2.4,218.0,2.9,'11111222,11111222,11111222' 
TCOON,ioos:station:TCOON:057:1,2013-07-03T06:48:00Z,28.4460,-96.3961,0.0,2.2,207.0,2.7,'11111222,11111222,11111222' 
TCOON,ioos:station:TCOON:057:1,2013-07-03T06:54:00Z,28.4460,-96.3961,0.0,3.1,212.0,3.9,'11111222,11111222,11111222' 
TCOON,ioos:station:TCOON:057:1,2013-07-03T07:00:00Z,28.4460,-96.3961,0.0,3.1,211.0,3.7,'11111222,11111222,11111222' 
TCOON,ioos:station:TCOON:057:1,2013-07-03T07:06:00Z,28.4460,-96.3961,0.0,2.8,212.0,3.3,'11111222,11111222,11111222' 
TCOON,ioos:station:TCOON:057:1,2013-07-03T07:12:00Z,28.4460,-96.3961,0.0,2.7,205.0,3.3,'11111222,11111222,11111222' 
TCOON,ioos:station:TCOON:057:1,2013-07-03T07:18:00Z,28.4460,-96.3961,0.0,2.6,205.0,3.1,'11111222,11111222,11111222' 
TCOON,ioos:station:TCOON:057:1,2013-07-03T07:24:00Z,28.4460,-96.3961,0.0,2.3,202.0,3.0,'11111222,11111222,11111222' 
TCOON,ioos:station:TCOON:057:1,2013-07-03T07:30:00Z,28.4460,-96.3961,0.0,2.8,201.0,3.4,'11111222,11111222,11111222' 
TCOON,ioos:station:TCOON:057:1,2013-07-03T07:36:00Z,28.4460,-96.3961,0.0,2.8,213.0,3.6,'11111222,11111222,11111222' 
TCOON,ioos:station:TCOON:057:1,2013-07-03T07:42:00Z,28.4460,-96.3961,0.0,2.4,210.0,3.0,'11111222,11111222,11111222' 
TCOON,ioos:station:TCOON:057:1,2013-07-03T07:48:00Z,28.4460,-96.3961,0.0,2.8,216.0,3.3,'11111222,11111222,11111222' 
TCOON,ioos:station:TCOON:057:1,2013-07-03T07:54:00Z,28.4460,-96.3961,0.0,2.8,219.0,3.4,'11111222,11111222,11111222' 
TCOON,ioos:station:TCOON:057:1,2013-07-03T08:00:00Z,28.4460,-96.3961,0.0,2.8,217.0,3.3,'11111222,11111222,11111222' 
TCOON,ioos:station:TCOON:057:1,2013-07-03T08:06:00Z,28.4460,-96.3961,0.0,3.0,220.0,3.6,'11111222,11111222,11111222' 
TCOON,ioos:station:TCOON:057:1,2013-07-03T08:12:00Z,28.4460,-96.3961,0.0,3.0,220.0,4.1,'11111222,11111222,11111222' 
TCOON,ioos:station:TCOON:057:1,2013-07-03T08:18:00Z,28.4460,-96.3961,0.0,2.9,223.0,3.8,'11111222,11111222,11111222' 
TCOON,ioos:station:TCOON:057:1,2013-07-03T08:24:00Z,28.4460,-96.3961,0.0,3.6,228.0,4.2,'11111222,11111222,11111222' 
TCOON,ioos:station:TCOON:057:1,2013-07-03T08:30:00Z,28.4460,-96.3961,0.0,3.2,230.0,4.2,'11111222,11111222,11111222' 
TCOON,ioos:station:TCOON:057:1,2013-07-03T08:36:00Z,28.4460,-96.3961,0.0,3.7,226.0,4.4,'11111222,11111222,11111222' 
TCOON,ioos:station:TCOON:057:1,2013-07-03T08:42:00Z,28.4460,-96.3961,0.0,3.9,228.0,4.3,'11111222,11111222,11111222' 
TCOON,ioos:station:TCOON:057:1,2013-07-03T08:48:00Z,28.4460,-96.3961,0.0,1.6,277.0,3.9,'11111222,11111222,11111222' 
TCOON,ioos:station:TCOON:057:1,2013-07-03T08:54:00Z,28.4460,-96.3961,0.0,1.6,270.0,2.1,'11111222,11111222,11111222' 
TCOON,ioos:station:TCOON:057:1,2013-07-03T09:00:00Z,28.4460,-96.3961,0.0,1.5,255.0,2.2,'11111222,11111222,11111222' 
TCOON,ioos:station:TCOON:057:1,2013-07-03T09:06:00Z,28.4460,-96.3961,0.0,1.8,248.0,2.2,'11111222,11111222,11111222' 
TCOON,ioos:station:TCOON:057:1,2013-07-03T09:12:00Z,28.4460,-96.3961,0.0,1.1,251.0,1.7,'11111222,11111222,11111222' 
TCOON,ioos:station:TCOON:057:1,2013-07-03T09:18:00Z,28.4460,-96.3961,0.0,0.7,279.0,1.2,'11111222,11111222,11111222' 
TCOON,ioos:station:TCOON:057:1,2013-07-03T09:24:00Z,28.4460,-96.3961,0.0,1.0,282.0,1.2,'11111222,11111222,11111222' 
TCOON,ioos:station:TCOON:057:1,2013-07-03T09:30:00Z,28.4460,-96.3961,0.0,1.1,274.0,1.5,'11111222,11111222,11111222' 
TCOON,ioos:station:TCOON:057:1,2013-07-03T09:36:00Z,28.4460,-96.3961,0.0,0.4,301.0,1.2,'11111222,11111222,11111222' 
TCOON,ioos:station:TCOON:057:1,2013-07-03T09:42:00Z,28.4460,-96.3961,0.0,0.6,281.0,0.8,'11111222,11111222,11111222' 
TCOON,ioos:station:TCOON:057:1,2013-07-03T09:48:00Z,28.4460,-96.3961,0.0,0.5,321.0,0.9,'11111222,11111222,11111222' 
TCOON,ioos:station:TCOON:057:1,2013-07-03T09:54:00Z,28.4460,-96.3961,0.0,0.7,310.0,1.0,'11111222,11111222,11111222' 
TCOON,ioos:station:TCOON:057:1,2013-07-03T10:00:00Z,28.4460,-96.3961,0.0,1.0,279.0,1.3,'11111222,11111222,11111222' 
TCOON,ioos:station:TCOON:057:1,2013-07-03T10:06:00Z,28.4460,-96.3961,0.0,1.7,262.0,1.9,'11111222,11111222,11111222' 
TCOON,ioos:station:TCOON:057:1,2013-07-03T10:12:00Z,28.4460,-96.3961,0.0,2.0,265.0,2.2,'11111222,11111222,11111222' 
TCOON,ioos:station:TCOON:057:1,2013-07-03T10:18:00Z,28.4460,-96.3961,0.0,1.4,257.0,2.0,'11111222,11111222,11111222' 
TCOON,ioos:station:TCOON:057:1,2013-07-03T10:24:00Z,28.4460,-96.3961,0.0,0.7,274.0,1.3,'11111222,11111222,11111222' 
TCOON,ioos:station:TCOON:057:1,2013-07-03T10:30:00Z,28.4460,-96.3961,0.0,0.8,257.0,1.2,'11111222,11111222,11111222' 
TCOON,ioos:station:TCOON:057:1,2013-07-03T10:36:00Z,28.4460,-96.3961,0.0,1.4,259.0,1.7,'11111222,11111222,11111222' 
TCOON,ioos:station:TCOON:057:1,2013-07-03T10:42:00Z,28.4460,-96.3961,0.0,2.0,271.0,2.3,'11111222,11111222,11111222' 
TCOON,ioos:station:TCOON:057:1,2013-07-03T10:48:00Z,28.4460,-96.3961,0.0,1.7,280.0,2.3,'11111222,11111222,11111222' 
TCOON,ioos:station:TCOON:057:1,2013-07-03T10:54:00Z,28.4460,-96.3961,0.0,0.7,266.0,1.8,'11111222,11111222,11111222' 
TCOON,ioos:station:TCOON:057:1,2013-07-03T11:00:00Z,28.4460,-96.3961,0.0,0.8,264.0,1.2,'11111222,11111222,11111222' 
TCOON,ioos:station:TCOON:057:1,2013-07-03T11:06:00Z,28.4460,-96.3961,0.0,0.9,282.0,1.1,'11111222,11111222,11111222' 
TCOON,ioos:station:TCOON:057:1,2013-07-03T11:12:00Z,28.4460,-96.3961,0.0,0.3,236.0,1.0,'11111222,11111222,11111222' 